Regional Weather Roundup
Issued by NWS

Home | Current Version | Previous Version | Graphics & Text | Print | Product List | Glossary Off
Versions: 1 2 3 4 5 6 7 8 9 10 11 12 13 14 15 16 17 18 19 20 21 22 23 24 25 26 27 28 29 30 31 32 33 34 35 36 37 38 39 40 41 42 43 44 45 46 47 48 49 50

000
ASUS43 KMPX 301601
RWRMN
WEATHER ROUNDUP FOR MINNESOTA
NATIONAL WEATHER SERVICE TWIN CITIES/CHANHASSEN MN
1100 AM CDT SAT JUL 30 2016


NOTE: "FAIR" INDICATES FEW OR NO CLOUDS BELOW 12,000 FEET WITH NO
SIGNIFICANT WEATHER AND/OR OBSTRUCTIONS TO VISIBILITY. N/A MEANS
CURRENT SKY AND/OR WEATHER CONDITIONS ARE NOT AVAILABLE.

MNZ060>063-068>070-301700-
   Twin Cities Metro

CITY           SKY/WX    TMP DP  RH WIND       PRES   REMARKS
TWIN CITIES    CLOUDY    72  64  76 S3        30.05R
ST PAUL        CLOUDY    74  65  73 VRB5      30.04S
CRYSTAL        CLOUDY    73  62  68 SE5       30.03S
BLAINE         PTSUNNY   75  64  69 E7        30.04S
LAKEVILLE      PTSUNNY   70  64  83 CALM      30.05R
EDEN PRAIRIE   PTSUNNY   75  64  68 S7        30.03S
LAKEVILLE      PTSUNNY   70  64  83 CALM      30.05R
SOUTH ST PAUL  CLOUDY    74  63  67 SE5       30.04S
LAKE ELMO      CLOUDY    75  64  69 E7        30.05S
$$
MNZ001>005-007-008-013>017-022>024-027-028-301700-
   Northwest Minnesota

CITY           SKY/WX    TMP DP  RH WIND       PRES   REMARKS
BEMIDJI        CLOUDY    69  60  73 W7        30.04S
HALLOCK        MOSUNNY   73  63  68 S17       29.93S
ROSEAU         MOSUNNY   75  66  73 SW8       29.97S
WARROAD        MOSUNNY   73  66  78 SW6       29.98F
THIEF RVR FALL CLOUDY    68  62  81 SE8       30.00F
CROOKSTON      MOSUNNY   72  63  73 S12       29.98F
FOSSTON        CLOUDY    66  63  88 SE3       30.03S
DETROIT LAKES  CLOUDY    72  61  68 S8        30.03S
MOORHEAD       MOSUNNY   75  63  64 S7        29.99F
PARK RAPIDS    CLOUDY    73  59  61 S3        30.04F
MAHNOMEN       PTSUNNY   72  62  71 S8        30.01S
$$
MNZ006-009>011-018-025>026-301700-
   North Central Minnesota

CITY           SKY/WX    TMP DP  RH WIND       PRES   REMARKS
BAUDETTE       SUNNY     77  64  64 S9        29.99F
FLAG ISLAND    MOSUNNY   73  63  68 S6        29.97S
INTL FALLS     MOSUNNY   73  58  59 VRB5      30.03F
WASKISH        PTSUNNY   73  63  68 SW5       30.02S
BIG FORK       SUNNY     75  61  60 S6        30.05S
LONGVILLE      SUNNY     73  57  56 SE5       30.05S
GRAND RAPIDS   SUNNY     72  57  59 SE7       30.08S
CRANE LAKE     SUNNY     72  54  53 S2        30.06F
ORR            SUNNY     73  50  43 SE6       30.04S
COOK           SUNNY     72  54  53 SE5       30.07S
WALKER         FAIR      73  58  59 S7        30.04F
$$
MNZ012-019>021-037-301700-
   Northeast Minnesota

CITY           SKY/WX    TMP DP  RH WIND       PRES   REMARKS
DULUTH         MOSUNNY   69  60  73 SE6       30.07S
ELY            MOSUNNY   72  54  53 SE3       30.07S
HIBBING        SUNNY     70  48  45 SE5       30.06F
EVELETH        SUNNY     71  54  54 CALM      30.08S
DULUTH HARBOR  SUNNY     66  61  82 E5        30.08R
TWO HARBORS    SUNNY     73  61  64 E7        30.06S
SILVER BAY     MOSUNNY   72  54  53 E8        30.06F
GRAND MARAIS     N/A     65  57  75 E9        30.08S
G MARAIS ARPRT SUNNY     70  46  43 E5        30.12S
$$
MNZ029>031-032-039>041-046>048-054>057-064-301700-
   West Central Minnesota

CITY           SKY/WX    TMP DP  RH WIND       PRES   REMARKS
FERGUS FALLS   MOSUNNY   72  61  68 S12       30.03S
WHEATON        MOSUNNY   77  61  57 SE10      30.02S
MORRIS         SUNNY     75  57  53 SE9       30.02S
ALEXANDRIA     SUNNY     73  53  49 SE6       30.06R
ELBOW LAKE     CLOUDY    72  61  68 SE12      30.03F
WADENA         MOSUNNY   73  57  56 SE6       30.04S
GLENWOOD       SUNNY     73  57  56 E6        30.06R
APPLETON       SUNNY     73  57  56 S6        30.02S
BENSON         SUNNY     73  55  53 S7        30.03F
ORTONVILLE     SUNNY     75  59  57 SE3       30.02S
MADISON        SUNNY     75  61  60 S5        30.03S
WILLMAR        FAIR      73  61  64 S3        30.06R
$$
MNZ033>034-036-042>043-049>051-058-059-301700-
   Central Minnesota

CITY           SKY/WX    TMP DP  RH WIND       PRES   REMARKS
ST CLOUD       SUNNY     74  61  63 VRB3      30.04S
SAUK CENTRE    FAIR      72  56  56 E6        30.05S
PAYNESVILLE    SUNNY     73  55  53 S5        30.06R
AITKIN         SUNNY     75  52  43 CALM      30.04S
PINE RIVER     SUNNY     73  59  60 S5        30.08S
BRAINERD       SUNNY     74  56  53 E5        30.05S
STAPLES        SUNNY     73  55  53 SW3       30.05S
LONG PRAIRIE   FAIR      72  55  56 E5        30.06R
LITTLE FALLS   SUNNY     72  54  53 SE7       30.05S
LITCHFIELD     SUNNY     75  55  50 SE5       30.05S
BUFFALO        PTSUNNY   73  59  61 E3        30.05S
MAPLE LAKE     SUNNY     74  64  69 CALM      30.05S
HUTCHINSON     MOSUNNY   75  60  59 E3        30.05S
$$
MNZ037-044-045-052-053-301700-
   East Central Minnesota

CITY           SKY/WX    TMP DP  RH WIND       PRES   REMARKS
PRINCETON      MOSUNNY   75  64  69 SE5       30.05S
MORA           MOSUNNY   70  61  73 SE3       30.07S
CAMBRIDGE      PTSUNNY   75  63  64 E3        30.03S
RUSH CITY      PTSUNNY   73  63  72 E3        30.05F
MOOSE LAKE     SUNNY     72  59  64 CALM      30.05S
HINCKLEY       CLOUDY    72  64  78 SE3       30.06S
CLOQUET        SUNNY     70  55  60 CALM      30.07S
MCGREGOR       SUNNY     72  54  53 S5        30.07R
$$
MNZ071>073-080-081-089-090-097-098-301700-
   Southwest Minnesota

CITY           SKY/WX    TMP DP  RH WIND       PRES   REMARKS
MONTEVIDEO     SUNNY     75  61  60 SW5       30.05S
GRANITE FALLS  SUNNY     74  59  58 SE3       30.05S
CANBY          SUNNY     76  55  48 CALM      30.04S
MARSHALL       MOSUNNY   75  56  51 CALM      30.04S
REDWOOD FALLS  SUNNY     74  55  51 VRB3      30.03F
OLIVIA         SUNNY     73  57  56 SE5       30.04S
PIPESTONE      SUNNY     73  57  56 SE6       30.05S
WINDOM         SUNNY     73  52  46 SW5       30.05S
WORTHINGTON    SUNNY     73  55  53 SE5       30.06S
JACKSON        SUNNY     72  54  53 CALM      30.06S
TRACY          SUNNY     74  55  51 E3        30.05R
SLAYTON        SUNNY     73  55  54 S3        30.06S
$$
MNZ065>067-074>077-082>085-091>093-301700-
   South Central Minnesota

CITY           SKY/WX    TMP DP  RH WIND       PRES   REMARKS
MANKATO        CLOUDY    73  55  53 CALM      30.04S
NEW ULM        SUNNY     73  55  53 CALM      30.04S
ST JAMES       SUNNY     70  52  52 CALM      30.05S
FAIRMONT       SUNNY     73  54  49 CALM      30.04S
GLENCOE        MOSUNNY   75  63  66 CALM      30.03S
FARIBAULT      PTSUNNY   73  64  73 CALM      30.05R
OWATONNA       MOSUNNY   73  63  68 CALM      30.05R
WASECA         CLOUDY    72  63  73 CALM      30.06S
ALBERT LEA     MOSUNNY   73  64  73 CALM      30.04S
$$
MNZ078>079-086>088-094>096-301700-
   Southeast Minnesota

CITY           SKY/WX    TMP DP  RH WIND       PRES   REMARKS
ROCHESTER      CLOUDY    74  64  71 VRB3      30.06R
RED WING       SUNNY     75  61  60 SE6       30.03S
STANTON        SUNNY     75  64  69 CALM      30.03S
DODGE CENTER   MOSUNNY   77  63  61 E7        30.05S
WINONA         MOSUNNY   73  61  64 SE3       30.04R
AUSTIN         PTSUNNY   72  64  78 CALM      30.04S
PRESTON        CLOUDY    71  60  67 E3        30.06R
$$
ABBREVIATIONS USED IN REMARKS
   TC - TEMPERATURES IN CELSIUS
  WCI - WIND CHILL INDEX
   HX - HEAT INDEX
  VSB - VISIBILITY
$$




USA.gov is the U.S. government's official web portal to all federal, state and local government web resources and services.